Find Starlink 34525

NORAD ID: 64678 Int'l Des: 2025-139 Owner: SPXS Country: US Constellation: starlink operational
LEOCIRCULAR

当前视图

正在加载3D地球...

About Starlink 34525

Starlink 34525 (NORAD 64678) is a starlink constellation satellite (v2 mini) launched Jun 28, 2025 by SPXS of US. It operates in LEO, CIRCULAR orbit with a mass of 575.00 kg.

即将过境

Passes for default location (London). Set your location on the main map for personalized predictions.

高度历史

Loading altitude history...

两行轨道根数

1 64678U 25139Q 26237.93506642 .00026535 00000-0 79352-3 0 9996
2 64678 53.1569 58.9734 0000571 104.3344 255.7722 15.34406921 66221
Epoch: Aug 25, 2026 • Age: 13 hours

当前状态

高度 467.3 km
远地点 / 近地点 N/A
速度 7.64 km/s
星下点 46.31°N, 35.36°W
发射日期 Jun 28, 2025
运行时间 1.1 years
类型 internet

技术详情

分类 Payload
质量 575.00 kg
干质量 530.00 kg
总质量 575.00 kg
长度 0.30 m
直径 4.10 m
跨度 29.00 m
形状 Box + pan
制造商 SPXS
平台类型 Starlink V2MO
阶段状态 In Orbit
所有者/国家 SPXS/US

Most Searched